Regional Weather Roundup
Issued by NWS Kansas City/Pleasant Hill, MO

Home | Current Version | Previous Version | Graphics & Text | Print | Product List | Glossary Off
Versions: 1 2 3 4 5 6 7 8 9 10 11 12 13 14 15 16 17 18 19 20 21 22 23 24 25 26 27

000
ASUS43 KEAX 191210
RWREAX

WEATHER ROUNDUP FOR EASTERN KANSAS AND NORTHWEST MISSOURI
NATIONAL WEATHER SERVICE KANSAS CITY/PLEASANT HILL MO
700 AM CDT SAT AUG 19 2017

KSZ040-057-103>105-MOZ028-029-037-043-191300-
...KANSAS CITY METROPOLITAN AREA...

CITY           SKY/WX    TMP DP  RH WIND       PRES   REMARKS
K.C. INTL      CLEAR     66  65  96 CALM      29.96R
6HR MIN TEMP:  65; 6HR MAX TEMP:  70;

K.C. DOWNTOWN  CLEAR     70  69  97 NW3       29.95R
6HR MIN TEMP:  69; 6HR MAX TEMP:  75;

LEES SUMMIT    CLEAR     68  68 100 SW5       29.96R
6HR MIN TEMP:  68; 6HR MAX TEMP:  74;

OLATHE - IXD   CLEAR     66  66 100 CALM      29.96R
6HR MIN TEMP:  66; 6HR MAX TEMP:  72;

OLATHE - OJC   CLEAR     67  67 100 CALM      29.96R
6HR MIN TEMP:  65; 6HR MAX TEMP:  73;

LAWRENCE       CLEAR     63  63 100 CALM      29.95S FOG

$$

MOZ001>008-011>017-020>025-030>033-038>040-044>046-053-054-191300-
...NORTHERN AND CENTRAL MISSOURI...

CITY           SKY/WX    TMP DP  RH WIND       PRES   REMARKS
ST. JOSEPH     FOG       62  62 100 CALM      29.95R VSB<1/4
6HR MIN TEMP:  60; 6HR MAX TEMP:  65;

WARRENSBURG    CLEAR     66  64  94 CALM      29.95R FOG
WHITEMAN AFB   CLEAR     67  67 100 SW6       29.94R
6HR MIN TEMP:  67; 6HR MAX TEMP:  70;

CLINTON        CLEAR     66  66 100 CALM      29.96R
SEDALIA        CLEAR     70  70 100 SW7       29.96R
6HR MIN TEMP:  69; 6HR MAX TEMP:  71;

WARSAW         NOT AVBL
CHILLICOTHE      N/A     61  61 100 CALM      29.95R
6HR MIN TEMP:  61; 6HR MAX TEMP:  66;

KIRKSVILLE     FOG       62  61  96 CALM      29.96R VSB<1/4
6HR MIN TEMP:  60; 6HR MAX TEMP:  68;


$$

MOZ041-047>049-056>058-063>065-088>090-097-191300-
...EASTERN AND SOUTHERN MISSOURI...

CITY           SKY/WX    TMP DP  RH WIND       PRES   REMARKS
ST. LOUIS INTL PTCLDY    71  68  90 SW5       29.95R
6HR MIN TEMP:  70; 6HR MAX TEMP:  75;

SPIRIT OF STL  PTCLDY    68  67  96 CALM      29.94R
COLUMBIA       CLEAR     68  66  93 W3        29.95R
JEFFERSON CITY CLEAR     70  69  97 CALM      29.94R
ROLLA          CLEAR     67  67 100 SW7       29.97R
OSAGE BEACH    CLEAR     66  66 100 S3        29.97R
SPRINGFIELD    CLEAR     69  69 100 S5        29.98R
BRANSON        PTCLDY    70  68  94 SW5       30.01S
JOPLIN         CLOUDY    75  74  96 S6        29.98R
WEST PLAINS    CLEAR     68  66  93 W6        30.01R

$$

IAZ060-094-KSZ022-034>040-054-083-096-NEZ052-066-093-191300-
...KANSAS...SOUTHEAST NEBRASKA AND IOWA...

CITY           SKY/WX    TMP DP  RH WIND       PRES   REMARKS
TOPEKA         FOG       63  63 100 CALM      29.95S VSB 1/4
6HR MIN TEMP:  63; 6HR MAX TEMP:  72;

MANHATTAN      FOG       62  62 100 CALM      29.96R VSB 3/4
EMPORIA        CLEAR     68  64  87 S8        29.95S
CHANUTE        CLOUDY    70  69  97 S3        29.96S
WICHITA        PTCLDY    71  69  93 S3        29.97R
OMAHA          CLEAR     60  56  86 N6        29.97R
LINCOLN        CLEAR     59  56  89 N6        29.99R
FALLS CITY     CLEAR     62  61  96 NW5       29.96R
LAMONI         CLEAR     62  62 100 NW5       29.95R
DES MOINES     PTCLDY    65  62  90 SE5       29.92R

$$





USA.gov is the U.S. government's official web portal to all federal, state and local government web resources and services.